Westfield, MA

6:16 AM EST on February 26, 2017 (GMT -0500)
Barnes Municipal

Weather History for KBAF - October, 2011

Change the Weather History Date:

Monday, October 17, 2011

  Actual Average Record
Temperature  
Mean Temperature 54 °F -  
Max Temperature 64 °F 58 °F 77 °F (2016)
Min Temperature 44 °F 36 °F 30 °F (1997)
Degree Days  
Heating Degree Days 11    
Growing Degree Days 4 (Base 50)    
Moisture  
Dew Point 38 °F    
Average Humidity 56    
Maximum Humidity 89    
Minimum Humidity 30    
Precipitation  
Precipitation 0.00 in - - ()
Sea Level Pressure  
Sea Level Pressure 29.68 in    
Wind  
Wind Speed 7 mph (SW)    
Max Wind Speed 13 mph    
Max Gust Speed 22 mph    
Visibility 10 miles    
Events Rain    
Averages and records for this station are not official NWS values.
T = Trace of Precipitation, MM = Missing Value Source: NWS Daily Summary

Daily Weather History Graph

Daily Weather History Graph

Search for Another Location

Airport or City:

Trip Planner

Search our weather history database for the weather conditions in past years. The results will help you decide how hot, cold, wet, or windy it might be!

Date:

Astronomy

Oct. 17, 2011 Rise Set
Actual Time 7:05 AM EDT 6:06 PM EDT
Civil Twilight 6:37 AM EDT 6:34 PM EDT
Nautical Twilight 6:04 AM EDT 7:07 PM EDT
Astronomical Twilight 5:32 AM EDT 7:39 PM EDT
Moon 9:40 PM EDT (10/17) 12:14 PM EDT (10/17)
Length of Visible Light 11h 57m
Length of Day
11h 00m
Waning Gibbous, 74% of the Moon is Illuminated
Oct 17
Waning Gibbous
Oct 19
Last Quarter
Oct 26
New
Nov 2
First Quarter
Nov 10
Full

Hourly Weather History & Observations

Time (EDT) Temp. Windchill Dew Point Humidity Pressure Visibility Wind Dir Wind Speed Gust Speed Precip Events Conditions
12:53 AM 57.0 °F - 45.0 °F 64% 29.62 in 10.0 mi SSE 4.6 mph - 0.00 in   Overcast
1:53 AM 55.0 °F - 46.9 °F 74% 29.61 in 10.0 mi South 6.9 mph - 0.00 in   Overcast
2:53 AM 57.9 °F - 46.9 °F 67% 29.61 in 10.0 mi SW 8.1 mph - 0.00 in Rain Light Rain
3:53 AM 55.9 °F - 48.0 °F 75% 29.59 in 10.0 mi SW 5.8 mph - 0.00 in   Overcast
4:53 AM 52.0 °F - 46.0 °F 80% 29.63 in 10.0 mi SW 3.5 mph - N/A   Clear
5:53 AM 52.0 °F - 39.0 °F 61% 29.67 in 10.0 mi NW 3.5 mph - N/A   Scattered Clouds
6:53 AM 46.9 °F - 41.0 °F 80% 29.68 in 10.0 mi Calm Calm - N/A   Mostly Cloudy
7:53 AM 44.1 °F 42.5 °F 41.0 °F 89% 29.71 in 10.0 mi South 3.5 mph - N/A   Clear
8:53 AM 55.0 °F - 41.0 °F 59% 29.73 in 10.0 mi SW 5.8 mph - N/A   Clear
9:53 AM 57.9 °F - 37.9 °F 47% 29.72 in 10.0 mi SSW 11.5 mph - N/A   Clear
10:53 AM 60.1 °F - 33.1 °F 36% 29.72 in 10.0 mi West 10.4 mph - N/A   Partly Cloudy
11:53 AM 60.1 °F - 30.9 °F 33% 29.72 in 10.0 mi West 10.4 mph - N/A   Scattered Clouds
12:53 PM 62.1 °F - 34.0 °F 35% 29.70 in 10.0 mi WSW 10.4 mph - N/A   Partly Cloudy
1:53 PM 61.0 °F - 34.0 °F 36% 29.67 in 10.0 mi WSW 9.2 mph - N/A   Partly Cloudy
2:53 PM 63.0 °F - 33.1 °F 33% 29.65 in 10.0 mi WSW 12.7 mph 21.9 mph N/A   Partly Cloudy
3:53 PM 63.0 °F - 33.1 °F 33% 29.65 in 10.0 mi WSW 10.4 mph - N/A   Scattered Clouds
4:53 PM 64.0 °F - 32.0 °F 30% 29.66 in 10.0 mi SW 12.7 mph - N/A   Partly Cloudy
5:53 PM 61.0 °F - 30.9 °F 32% 29.67 in 10.0 mi SW 11.5 mph - N/A   Clear
6:53 PM 55.0 °F - 34.0 °F 45% 29.69 in 10.0 mi South 4.6 mph - N/A   Clear
7:53 PM 50.0 °F - 37.0 °F 61% 29.72 in 10.0 mi SSW 6.9 mph - N/A   Clear
8:53 PM 48.9 °F - 37.9 °F 66% 29.72 in 10.0 mi South 6.9 mph - N/A   Clear
9:53 PM 48.9 °F - 37.0 °F 64% 29.73 in 10.0 mi SSW 8.1 mph - N/A   Clear
10:53 PM 48.0 °F - 37.9 °F 68% 29.73 in 10.0 mi SW 4.6 mph - N/A   Clear
11:53 PM 48.9 °F - 37.0 °F 64% 29.74 in 10.0 mi SSW 5.8 mph - N/A   Clear